Date,TemperatureHighF,TemperatureAvgF,TemperatureLowF,DewpointHighF,DewpointAvgF,DewpointLowF,HumidityHigh,HumidityAvg,HumidityLow,PressureMaxIn,PressureMinIn,WindSpeedMaxMPH,WindSpeedAvgMPH,GustSpeedMaxMPH,PrecipitationSumIn
2013-2-1,48,39,32,31,23,17,88,55,34,30.05,29.78,19,9,31,0.01
2013-2-2,51,33,24,26,22,18,86,65,39,30.14,30.00,7,3,11,0.00
2013-2-3,45,30,23,27,22,19,86,74,46,30.00,29.76,10,2,14,0.00
2013-2-4,44,36,28,28,25,20,89,65,48,29.77,29.67,14,4,18,0.00
2013-2-5,49,36,31,34,28,25,85,71,50,29.76,29.54,13,4,18,0.00
2013-2-6,43,34,26,29,22,18,82,63,41,29.85,29.59,22,5,31,0.00
2013-2-7,45,34,25,24,19,12,82,56,34,29.85,29.66,35,16,44,1.25
2013-2-8,40,29,19,23,20,15,87,71,48,29.75,29.66,8,3,11,0.00
2013-2-9,43,31,24,26,20,13,90,65,39,29.76,29.59,23,10,35,0.00
2013-2-10,32,28,26,23,17,12,82,65,47,29.89,29.75,26,19,38,0.02
2013-2-11,35,25,13,19,13,8,81,62,40,29.86,29.80,6,2,9,0.00
2013-2-12,40,30,17,27,20,11,82,68,51,29.90,29.80,8,3,14,0.00
2013-2-13,50,40,33,26,22,14,73,50,30,29.88,29.70,27,14,44,2.96
2013-2-14,38,29,22,24,20,17,90,70,49,30.10,29.88,22,6,36,0.01
2013-2-15,51,34,22,25,21,17,84,62,36,30.15,29.62,12,4,18,0.00
2013-2-16,36,24,20,27,20,17,91,84,62,29.63,29.54,3,2,8,0.00
2013-2-17,41,34,27,28,20,13,94,60,38,29.79,29.57,21,10,35,0.31
2013-2-18,42,30,22,26,18,6,90,65,25,29.85,29.65,26,11,36,0.00
2013-2-19,45,31,24,22,16,11,79,55,35,29.66,29.45,30,12,34,0.00
2013-2-20,37,28,21,27,20,14,84,73,53,29.66,29.53,15,6,21,0.00
2013-2-21,40,28,13,19,12,4,80,54,30,29.75,29.65,16,4,25,0.00
2013-2-22,48,34,23,22,15,10,79,51,25,29.72,29.44,24,10,34,0.01
2013-2-23,41,34,27,28,13,3,86,45,25,29.82,29.39,24,13,34,0.01
2013-2-24,43,29,16,17,13,7,78,54,26,29.95,29.82,18,6,23,0.00
2013-2-25,43,29,19,31,18,11,94,68,34,29.84,29.60,32,7,42,0.00
2013-2-26,44,30,22,23,15,8,93,56,30,29.98,29.73,16,7,27,0.00
2013-2-27,44,28,15,17,13,9,81,56,27,30.02,29.90,10,3,15,0.00
2013-2-28,47,32,20,26,18,12,77,58,33,30.05,29.96,9,3,12,0.00